Showing default

SKYSAT C2, 41773

Orbit data source: Space-Track

SKYSAT C2, 41773 is a payload satellite owned by Terra Bella (US) in SSO that was launched on Fri, 16 Sep 2016 UTC via a VEGA launch vehicle from the French Guiana (FRGUI). Payload-class satellites include a variety of spacecraft equipped with specific instruments for various scientific and technological missions. These include communications satellites like Starlink; space stations such as the ISS; scientific satellites like the Hubble; Earth observation satellites from companies like Planet Labs, Umbra, and HawkEye 360; GPS; miniature CubeSats for education and research; and military/defense satellites.

Loading next visibility...
Identifier
41773, 2016-058D
Orbit
SSO
Country
Flag of USUS
Related business
Manufacturer
SS/Loral (MDA)
Mission
Operational Commercial Imaging
Bus & Motor
SKYSAT-GEN2, Unknown motor
Mass
110 kg wet, 110 kg dry
Launch date (UTC)
2016-09-16 (9 years ago)
Launch vehicle
VEGA
Launch site
French Guiana (FRGUI)
Object type
Payload
Rocket body
Debris
Shape & HBR
Box, 0.6 m
Radar Cross Section
0.888 m², Medium (>0.1 m² and < 1m²)

Expand to show TLE details & history
Last TLE update: 15 hours ago

TLE from 15 hours ago
0 SKYSAT C2
1 41773U 16058D   25261.07403968  .00009149  00000-0  27523-3 0  9990
2 41773  97.0487 289.3327 0002381 349.4422  10.6771 15.34582608503210
Epoch: 2025-09-18T01:46Z
TLE epoch observation values (Epoch: 2025-09-18T01:46:37.028Z)
Latitude
-0.00008°
Longitude
-94.56244°
Altitude
463.68 km
Speed
7.636 km/s
True Right ascension
19h 17m 19s
True Declination
0° 00' 00"
Sunlit
Object was in full shadow at epoch
Visualization orbit readout
Latitude
Unknown
Longitude
Unknown
Altitude
Unknown
Speed
Unknown
Apparent Right ascension
Unknown
Apparent Declination
Unknown
Sunlit
N/A
Visualization observer readout
Local Sidereal Time
09:53:16
Azimuth
Unknown
Elevation
Unknown
Doppler factor
Unknown
Orbital elements
Apogee altitude
460.72 km
Perigee altitude
457.464 km
Semi-major axis
6,837.229 km
Eccentricity
0.00024
Inclination
97.0487°
RAAN
289.3327°
Arg. of periapsis
349.4422°
True anomaly
10.68216°
Mean anomaly
10.6771°
Eccentric anomaly
10.67963°
Mean motion
3.83904 °/min
Orbital period
93.77 mins
BSTAR
0.00027523
Loading maneuver chart data...
Computing Atmospheric mass density...
Loading historical data...
Loading historical data...
Loading historical data...
Loading historical data...
Loading historical data...
Loading historical data...
Loading historical data...

Documentation

Showing up to 5 results
|